[[{"header":{"parameterUnit":"m.s-1","parameterCategory":2,"la1":30.2991,"la2":30.254,"lo1":-89.0895,"lo2":-89.0444,"dy":0.0017,"dx":0.0017,"nx":28,"ny":28,"refTime":"2025-06-03T03:00:00:Z","depth":"0","parameterNumber":2,"parameterNumberName":"U-component_of_CURRENTS"},"data":[0,0,0,0,0,0,0,0,0,0,0,0,0,0,0,0,0,0,0,0,0,0,0,0,0,0,0,0,0,0,0,0,0,0,0,0,0,0,0,0,0,0,0,0,0,0,0,0,0,0,0,0,0,0,0,0,0,0,0.2687,0.2687,0,0.2714,0.2714,0.2714,0.2704,0.2704,0.2704,0.2703,0.2678,0.2678,0.2677,0,0,0,0,0,0,0,0,0,0,0,0,0,0.2518,0.2521,0.2687,0.2687,0.2688,0.2714,0.2714,0.2714,0.2704,0.2704,0.2703,0.2703,0.2678,0.2678,0.2677,0,0,0,0,0,0,0,0,0,0,0,0,0,0.257,0.2522,0.2686,0.2688,0.2689,0.2714,0.2714,0.2714,0.2704,0.2704,0.2703,0.2703,0.2678,0.2678,0.2677,0.2683,0,0,0.2675,0.2675,0,0,0,0,0,0,0,0,0.2567,0.2576,0.2688,0.2688,0.2689,0.2708,0.2645,0.2702,0.2704,0.2695,0.2703,0.2703,0.2686,0.2684,0.2687,0.2682,0.2681,0.2675,0.2675,0.2675,0.2675,0,0,0,0,0,0,0,0.2563,0.2574,0.2694,0.2688,0.2689,0.2651,0.2659,0.2655,0.2689,0.2696,0.2696,0.2704,0.2685,0.2687,0.2686,0.2681,0.2675,0.2675,0.2675,0.2674,0.2751,0.2754,0,0,0,0,0,0,0.2574,0.2572,0.2693,0.2695,0.2629,0.2655,0.2663,0.27,0.269,0.269,0.2705,0.2704,0.2689,0.2687,0.2685,0.275,0.2675,0.2674,0.2674,0.2749,0.2752,0.2755,0,0,0,0,0,0,0.257,0.2585,0.2692,0.2634,0.2645,0.266,0.27,0.2701,0.2711,0.2698,0.2696,0.2716,0.2688,0.2686,0.2706,0.2747,0.2674,0.2674,0.2746,0.275,0.2753,0.2843,0,0,0,0,0,0,0.2566,0.2585,0.2611,0.2636,0.2649,0.2733,0.2701,0.2702,0.2718,0.2717,0.2707,0.2704,0.2688,0.2707,0.2705,0.2745,0.2673,0.2743,0.2748,0.2752,0.2837,0.2849,0.2859,0,0,0,0,0,0.256,0.2617,0.2613,0.2627,0.2688,0.2736,0.274,0.2743,0.2719,0.2745,0.2733,0.2704,0.2734,0.2708,0.2706,0.2746,0.2741,0.2747,0.2752,0.2832,0.2847,0.2859,0,0,0,0,0,0,0.2574,0.2622,0.2618,0.269,0.2716,0.2736,0.2759,0.2751,0.2761,0.2752,0.2727,0.2725,0.2769,0.2743,0.2715,0.2785,0.2736,0.2741,0.2798,0.2812,0.2823,0.2888,0.2673,0,0,0,0,0,0.2585,0.2629,0.2666,0.272,0.2737,0.2742,0.2758,0.2761,0.2773,0.2776,0.2767,0.2764,0.2789,0.2787,0.2804,0.2824,0.2866,0.2853,0.2864,0.2874,0.2928,0.3024,0.305,0.2772,0.2772,0.2772,0,0,0.26,0.2635,0.2658,0.2723,0.2737,0.2773,0.2751,0.2789,0.2815,0.2771,0.2801,0.2809,0.2809,0.2852,0.2867,0.283,0.2973,0.2881,0.2889,0.2939,0.3033,0.306,0.3085,0.2776,0.2775,0.2775,0,0,0.2652,0.269,0.2733,0.276,0.2795,0.2804,0.2818,0.2842,0.2855,0.2879,0.2875,0.2926,0.2909,0.2956,0.2966,0.3052,0.3043,0.3029,0.3121,0.3213,0.3238,0.326,0.3339,0.3368,0.3017,0.3017,0.3018,0,0.2662,0.273,0.2753,0.2798,0.2822,0.2821,0.2863,0.2883,0.2908,0.2937,0.29,0.2977,0.2979,0.3075,0.3114,0.3084,0.312,0.3062,0.3231,0.3253,0.3274,0.3351,0.3381,0.3022,0.3022,0.3021,0.3021,0,0.2737,0.2782,0.2816,0.2864,0.2897,0.2938,0.2966,0.2995,0.2991,0.3014,0.3104,0.3126,0.3175,0.3184,0.3173,0.3324,0.3297,0.3245,0.3198,0.3308,0.3381,0.3411,0.303,0.3028,0.3026,0.3025,0,0,0.2768,0.2849,0.2855,0.2876,0.2933,0.2962,0.3023,0.3089,0.3122,0.3169,0.3233,0.3332,0.3351,0.3372,0.3376,0.3467,0.3645,0.3423,0.3425,0.3508,0.3846,0.3778,0.3803,0.3607,0.3612,0.3617,0.3833,0,0.2808,0.2894,0.2927,0.2985,0.3026,0.3051,0.3099,0.3157,0.319,0.3247,0.3333,0.3385,0.3413,0.3424,0.3543,0.3606,0.373,0.3593,0.3725,0.3731,0.3661,0.3839,0.3758,0.394,0.3863,0.3868,0.3871,0,0.2859,0.2908,0.2981,0.3036,0.3055,0.3083,0.3153,0.3197,0.3295,0.3322,0.343,0.3461,0.3633,0.3599,0.3861,0.3759,0.385,0.3906,0.3913,0.3853,0.3721,0.382,0.3997,0.3859,0.3917,0.3914,0.391,0,0.2856,0.2936,0.299,0.3012,0.3082,0.311,0.314,0.3225,0.3256,0.3368,0.3389,0.3584,0.364,0.3823,0.3957,0.3912,0.4212,0.4139,0.419,0.4184,0.4151,0.4132,0.4224,0.4376,0.4376,0.4375,0.4374,0,0.2887,0.292,0.2983,0.3007,0.3042,0.3099,0.3137,0.3192,0.3265,0.3315,0.3424,0.3494,0.3699,0.3859,0.4006,0.4204,0.4263,0.4287,0.4267,0.4175,0.4156,0.4057,0.3949,0.4383,0.4381,0.438,0.4378,0,0.2874,0.2924,0.2969,0.3032,0.304,0.306,0.3092,0.3125,0.3197,0.326,0.3291,0.3456,0.3666,0.3867,0.4138,0.4233,0.4311,0.4479,0.4352,0.4315,0.4196,0.4095,0.4058,0.394,0.4592,0.4593,0.4593,0,0.2884,0.2908,0.2955,0.2957,0.2975,0.2999,0.3012,0.3082,0.3112,0.3239,0.3271,0.3463,0.3598,0.3962,0.4191,0.4462,0.4309,0.4504,0.4428,0.425,0.4125,0.3912,0.3799,0.4424,0.4423,0.4422,0.4421,0,0.2874,0.2881,0.2906,0.2907,0.2914,0.2914,0.2937,0.2945,0.3038,0.3097,0.3197,0.3307,0.3652,0.3878,0.4201,0.4366,0.4253,0.4486,0.4361,0.4085,0.3808,0.366,0.4196,0.4411,0.4412,0.4413,0.4413,0.4414,0.2837,0.2834,0.2843,0.2832,0.2836,0.2808,0.2777,0.2827,0.2854,0.2926,0.309,0.3238,0.3586,0.4027,0.4155,0.4283,0.419,0.4238,0.4163,0.3988,0.3777,0.4284,0.4413,0.4414,0.4414,0.4415,0.4416,0,0.2767,0.276,0.2759,0.2726,0.2686,0.2715,0.2705,0.267,0.2677,0.283,0.2922,0.3236,0.3497,0.3782,0.405,0.398,0.3855,0.3883,0.3595,0.3525,0.4074,0.3968,0.3931,0.3932,0.3932,0.3932,0.3932,0.3932,0.2725,0.2686,0.2679,0.2575,0.2547,0.2457,0.243,0.2422,0.2493,0.2597,0.2754,0.2947,0.3298,0.3626,0.3676,0.3642,0.3342,0.3241,0.315,0.356,0.3587,0.3612,0.349,0.3355,0.3354,0.2526,0.2519,0.2514]},{"header":{"parameterUnit":"m.s-1","parameterCategory":2,"la1":30.2991,"la2":30.254,"lo1":-89.0895,"lo2":-89.0444,"dy":0.0017,"dx":0.0017,"nx":28,"ny":28,"refTime":"2025-06-03T03:00:00:Z","depth":"0","parameterNumber":3,"parameterNumberName":"V-component_of_CURRENTS"},"data":[0,0,0,0,0,0,0,0,0,0,0,0,0,0,0,0,0,0,0,0,0,0,0,0,0,0,0,0,0,0,0,0,0,0,0,0,0,0,0,0,0,0,0,0,0,0,0,0,0,0,0,0,0,0,0,0,0,0,0.0182,0.0181,0,0.01,0.0099,0.0098,0.0039,0.0039,0.0038,0.0038,-0.0094,-0.0097,-0.01,0,0,0,0,0,0,0,0,0,0,0,0,0,0.0226,0.0226,0.0182,0.0181,0.018,0.01,0.0099,0.0098,0.0039,0.0039,0.0038,0.0038,-0.0093,-0.0096,-0.01,0,0,0,0,0,0,0,0,0,0,0,0,0,0.0182,0.0226,0.0182,0.0141,0.0137,0.01,0.0099,0.0097,0.0039,0.0039,0.0038,0.0037,-0.0091,-0.0096,-0.01,-0.0115,0,0,-0.0115,-0.0116,0,0,0,0,0,0,0,0,0.0185,0.0181,0.0148,0.0144,0.0139,0.0079,0.0066,0.0024,0.004,0.0076,0.0038,0.0037,-0.004,-0.0049,-0.0062,-0.0121,-0.0126,-0.0115,-0.0118,-0.012,-0.0121,0,0,0,0,0,0,0,0.0188,0.0183,0.0149,0.0147,0.0142,0.0106,0.0099,0.0058,0.0022,0.0073,0.0069,0.006,-0.0043,-0.0057,-0.0066,-0.0128,-0.0115,-0.0119,-0.0122,-0.0123,-0.0185,-0.0184,0,0,0,0,0,0,0.0202,0.0187,0.0152,0.0147,0.0161,0.0106,0.0098,0.0099,0.0024,0.0012,0.006,0.0057,-0.0049,-0.006,-0.0071,-0.0051,-0.012,-0.0124,-0.0127,-0.0186,-0.0185,-0.0184,0,0,0,0,0,0,0.0204,0.02,0.0155,0.0164,0.0156,0.0106,0.0107,0.0098,0.0082,0.0015,0.0002,0.0054,-0.005,-0.0064,-0.0099,-0.0058,-0.0126,-0.013,-0.0188,-0.0186,-0.0184,-0.0037,0,0,0,0,0,0,0.0206,0.0202,0.0212,0.0166,0.0156,0.0149,0.0107,0.0097,0.0078,0.0073,0.0005,-0.0008,-0.0052,-0.0092,-0.0104,-0.0065,-0.0134,-0.0189,-0.0187,-0.0185,-0.0044,-0.0031,-0.002,0,0,0,0,0,0.0208,0.0235,0.0213,0.0209,0.0171,0.015,0.0142,0.0103,0.0079,0.0084,0.0035,-0.0006,-0.0087,-0.0095,-0.0109,-0.0071,-0.019,-0.0187,-0.0185,-0.0049,-0.0033,-0.002,0,0,0,0,0,0,0.0275,0.023,0.0205,0.0222,0.0191,0.014,0.0145,0.011,0.0075,0.0069,0.0,-0.0015,-0.0025,-0.0076,-0.0083,-0.0084,-0.0142,-0.0142,-0.0033,-0.002,-0.0008,0.0057,-0.0138,0,0,0,0,0,0.029,0.0291,0.0244,0.0258,0.0246,0.0194,0.018,0.0151,0.0111,0.0095,0.0047,0.0,-0.0025,-0.0045,-0.0081,-0.009,-0.0096,-0.0074,-0.0062,-0.0051,-0.0009,0.003,0.0051,-0.0175,-0.0175,-0.0175,0,0,0.0321,0.0297,0.0299,0.0271,0.0244,0.024,0.0185,0.0175,0.0176,0.0086,0.008,0.0038,-0.0019,-0.0019,-0.0027,-0.0057,0.0002,-0.0048,-0.0038,-0.0001,0.0035,0.0057,0.0077,-0.0174,-0.0174,-0.0174,0,0,0.0382,0.0362,0.0377,0.0356,0.0319,0.0286,0.0285,0.0237,0.0223,0.02,0.0154,0.0152,0.0073,0.0077,0.0059,0.0114,0.0066,0.008,0.0193,0.0229,0.025,0.0267,0.0266,0.0282,0.0085,0.0085,0.0085,0,0.0423,0.0427,0.0382,0.0389,0.0381,0.0311,0.0328,0.0307,0.0254,0.027,0.0214,0.0191,0.0137,0.0186,0.0201,0.0149,0.0139,0.0146,0.025,0.0268,0.0284,0.0278,0.0294,0.0093,0.0092,0.0091,0.009,0,0.0481,0.0485,0.0498,0.0477,0.0469,0.0472,0.0432,0.0433,0.0395,0.038,0.0411,0.0355,0.0353,0.0331,0.0275,0.0367,0.0311,0.0266,0.0226,0.0317,0.0302,0.0317,0.0103,0.0101,0.0098,0.0097,0,0,0.0567,0.0543,0.0546,0.0552,0.0513,0.0517,0.0537,0.0549,0.0595,0.0551,0.0618,0.0589,0.0577,0.0559,0.0508,0.0537,0.0618,0.0452,0.0451,0.0473,0.0674,0.0595,0.0602,0.0586,0.059,0.0593,0.0612,0,0.0623,0.0654,0.0627,0.0664,0.0674,0.0639,0.0671,0.068,0.0677,0.0724,0.0711,0.0737,0.0655,0.0663,0.069,0.0633,0.0667,0.0616,0.0566,0.0564,0.0503,0.0621,0.0583,0.0595,0.0626,0.0628,0.063,0,0.0678,0.069,0.0734,0.0758,0.0766,0.0785,0.0845,0.0864,0.0916,0.0923,0.0969,0.0937,0.0983,0.0887,0.0898,0.0862,0.0799,0.0751,0.0749,0.0647,0.0516,0.0511,0.0619,0.04,0.0652,0.065,0.0649,0,0.0739,0.0766,0.0806,0.0808,0.0827,0.0868,0.0886,0.0938,0.0982,0.1061,0.1099,0.1141,0.1147,0.1115,0.0997,0.0954,0.0989,0.0909,0.0791,0.0782,0.073,0.0711,0.0648,0.0954,0.0954,0.0954,0.0954,0,0.0796,0.083,0.0843,0.0863,0.0938,0.0937,0.1033,0.1067,0.114,0.1219,0.121,0.1273,0.1205,0.1188,0.1083,0.0988,0.1059,0.086,0.0811,0.0772,0.0757,0.0543,0.0415,0.0954,0.0954,0.0954,0.0954,0,0.0849,0.0851,0.0899,0.0942,0.0959,0.1017,0.1086,0.1168,0.1223,0.1325,0.135,0.1385,0.137,0.1281,0.1219,0.1086,0.0883,0.0949,0.0888,0.0832,0.0496,0.0377,0.0314,0.0228,0.084,0.0838,0.0837,0,0.0878,0.0904,0.0951,0.0986,0.1007,0.108,0.1139,0.1202,0.1283,0.1389,0.1449,0.147,0.1503,0.138,0.1182,0.1026,0.0847,0.0845,0.0771,0.0519,0.0351,0.0288,0.0216,0.0745,0.0743,0.0742,0.0741,0,0.093,0.0941,0.0978,0.104,0.1103,0.118,0.1265,0.1332,0.1419,0.1505,0.1611,0.1651,0.1536,0.139,0.1154,0.1005,0.0672,0.0805,0.0589,0.0332,0.0222,0.01,0.0651,0.0727,0.0729,0.073,0.073,0.0731,0.0962,0.0995,0.1029,0.1094,0.117,0.1268,0.1333,0.1437,0.1552,0.1694,0.1727,0.1826,0.1588,0.1278,0.1014,0.0512,0.0556,0.0353,0.0247,0.0222,0.0098,0.0601,0.0584,0.0584,0.0584,0.0585,0.0585,0,0.098,0.1011,0.1077,0.115,0.1238,0.1273,0.1407,0.1486,0.1615,0.179,0.1892,0.1879,0.1489,0.1099,0.046,0.0051,-0.0076,-0.0176,-0.0272,-0.0304,0.0185,0.0135,-0.0034,-0.0034,-0.0034,-0.0034,-0.0034,-0.0033,0.0985,0.103,0.106,0.118,0.1246,0.1358,0.1433,0.1566,0.171,0.1923,0.2046,0.2147,0.1861,0.0611,-0.0265,-0.0464,-0.0741,-0.0808,-0.0918,-0.0627,-0.0586,-0.0546,-0.0622,-0.0948,-0.0949,-0.135,-0.1355,-0.1358]}],[{"header":{"parameterUnit":"m.s-1","parameterCategory":2,"la1":30.2991,"la2":30.254,"lo1":-89.0895,"lo2":-89.0444,"dy":0.0017,"dx":0.0017,"nx":28,"ny":28,"refTime":"2025-06-03T03:00:00:Z","depth":"2","parameterNumber":2,"parameterNumberName":"U-component_of_CURRENTS"},"data":[0,0,0,0,0,0,0,0,0,0,0,0,0,0,0,0,0,0,0,0,0,0,0,0,0,0,0,0,0,0,0,0,0,0,0,0,0,0,0,0,0,0,0,0,0,0,0,0,0,0,0,0,0,0,0,0,0,0,0.1613,0.1613,0,0.1629,0.1629,0.1629,0.1665,0.1666,0.1667,0.1668,0.1691,0.1691,0.1691,0,0,0,0,0,0,0,0,0,0,0,0,0,0.1683,0.1681,0.1613,0.1613,0.1614,0.1629,0.1629,0.1629,0.1664,0.1666,0.1667,0.1668,0.1691,0.1691,0.1691,0,0,0,0,0,0,0,0,0,0,0,0,0,0.1668,0.168,0.1612,0.1635,0.1638,0.1629,0.1629,0.1629,0.1664,0.1666,0.1667,0.1669,0.1691,0.1691,0.169,0.1657,0,0,0.1689,0.1689,0,0,0,0,0,0,0,0,0.1669,0.1665,0.1632,0.1634,0.1637,0.1649,0.1663,0.164,0.1664,0.1651,0.1668,0.1669,0.1679,0.1679,0.1674,0.1658,0.1659,0.1689,0.1689,0.1688,0.1688,0,0,0,0,0,0,0,0.167,0.1665,0.1616,0.1632,0.1635,0.167,0.1668,0.1658,0.1654,0.1652,0.1656,0.1662,0.168,0.1675,0.1675,0.1659,0.1689,0.1689,0.1688,0.1688,0.1795,0.1798,0,0,0,0,0,0,0.1668,0.1665,0.1615,0.1617,0.166,0.1667,0.1665,0.1641,0.1654,0.1658,0.1661,0.1664,0.1675,0.1676,0.1676,0.1772,0.1688,0.1688,0.1688,0.1792,0.1796,0.1799,0,0,0,0,0,0,0.1669,0.1662,0.1615,0.1646,0.1643,0.1664,0.1637,0.1641,0.1672,0.1661,0.1665,0.1693,0.1676,0.1677,0.1713,0.1768,0.1688,0.1687,0.1789,0.1793,0.1798,0.1877,0,0,0,0,0,0,0.167,0.1661,0.1652,0.1644,0.1641,0.1626,0.1636,0.164,0.1673,0.1678,0.1689,0.169,0.1677,0.1714,0.1713,0.1766,0.1687,0.1785,0.1791,0.1796,0.1871,0.1884,0.1896,0,0,0,0,0,0.1672,0.1638,0.165,0.1646,0.1623,0.1627,0.1628,0.1647,0.1673,0.1683,0.1711,0.1692,0.1752,0.1715,0.1713,0.1768,0.1782,0.1789,0.1796,0.1865,0.1882,0.1895,0,0,0,0,0,0,0.1651,0.1638,0.1652,0.1614,0.1635,0.1635,0.1642,0.1666,0.1693,0.1711,0.171,0.1713,0.1774,0.176,0.172,0.1823,0.1772,0.1779,0.1826,0.1841,0.1853,0.1806,0.1687,0,0,0,0,0,0.1645,0.1624,0.1632,0.1607,0.162,0.1643,0.1653,0.1673,0.1692,0.1707,0.1727,0.1758,0.1794,0.1809,0.1827,0.1861,0.1839,0.1905,0.1918,0.1928,0.1893,0.192,0.193,0.1823,0.1823,0.1823,0,0,0.1626,0.1623,0.1608,0.1605,0.1622,0.1631,0.1652,0.1675,0.1697,0.1703,0.1751,0.1797,0.1815,0.187,0.1897,0.1867,0.1959,0.1937,0.1946,0.1904,0.1928,0.1938,0.1946,0.1827,0.1827,0.1826,0,0,0.1588,0.1585,0.1567,0.1587,0.1624,0.1638,0.1657,0.1691,0.1724,0.1771,0.1806,0.1877,0.1915,0.1946,0.1964,0.2051,0.2027,0.209,0.2104,0.2133,0.214,0.2146,0.2169,0.2176,0.2092,0.2092,0.2092,0,0.1574,0.1552,0.1567,0.1573,0.1594,0.1647,0.1658,0.1686,0.1737,0.1774,0.1798,0.1914,0.1941,0.2009,0.2058,0.2074,0.2085,0.2043,0.2145,0.215,0.2155,0.2176,0.2182,0.2097,0.2096,0.2096,0.2095,0,0.1535,0.1534,0.1532,0.1554,0.1578,0.1597,0.1647,0.1696,0.176,0.1801,0.1905,0.1959,0.2029,0.2078,0.209,0.2167,0.2165,0.2159,0.2094,0.217,0.2188,0.2194,0.2104,0.2102,0.2101,0.2099,0,0,0.1467,0.1495,0.1504,0.1528,0.1579,0.1597,0.1645,0.1707,0.1763,0.184,0.1914,0.2011,0.2074,0.2098,0.2156,0.2183,0.226,0.2193,0.2192,0.2192,0.2328,0.2366,0.2376,0.2281,0.2281,0.2282,0.2339,0,0.1446,0.145,0.1475,0.1506,0.1522,0.159,0.1634,0.1704,0.1784,0.1869,0.1952,0.2048,0.2073,0.2151,0.2181,0.2246,0.2273,0.2244,0.2272,0.2271,0.2278,0.2383,0.2138,0.2172,0.2344,0.2345,0.2345,0,0.1416,0.1429,0.1445,0.1508,0.1526,0.1558,0.1665,0.1716,0.183,0.19,0.1996,0.2071,0.2162,0.2172,0.2262,0.2251,0.2287,0.2314,0.2317,0.2311,0.232,0.212,0.2174,0.2354,0.2353,0.2353,0.2352,0,0.1383,0.1417,0.1436,0.1455,0.1524,0.1569,0.1629,0.1737,0.1804,0.1939,0.2012,0.2108,0.2198,0.2235,0.2329,0.2304,0.2411,0.238,0.2433,0.2435,0.2205,0.2187,0.2413,0.2413,0.2413,0.2412,0.2412,0,0.1352,0.1371,0.1431,0.1444,0.1501,0.1566,0.1654,0.1731,0.185,0.1937,0.2043,0.213,0.2221,0.2308,0.2342,0.243,0.2429,0.2439,0.2458,0.2236,0.2221,0.2345,0.2336,0.2415,0.2414,0.2414,0.2413,0,0.131,0.134,0.1373,0.1451,0.1484,0.1538,0.1662,0.1726,0.1849,0.1965,0.2019,0.2166,0.2303,0.2388,0.248,0.2474,0.2534,0.2559,0.2304,0.2293,0.2522,0.2517,0.2593,0.2595,0.2596,0.2598,0.2599,0,0.1281,0.1291,0.1375,0.1412,0.1454,0.154,0.1601,0.1721,0.1793,0.1985,0.2036,0.2218,0.2353,0.2516,0.2503,0.2568,0.2633,0.2409,0.231,0.2532,0.2543,0.2535,0.2529,0.2037,0.2034,0.2031,0.2029,0,0.1236,0.1278,0.1312,0.1388,0.1453,0.1518,0.1618,0.1663,0.1815,0.1932,0.2102,0.2231,0.2372,0.2353,0.2456,0.2445,0.2378,0.2357,0.2644,0.2062,0.2023,0.2029,0.2037,0.2003,0.2006,0.2008,0.2009,0.201,0.1218,0.1238,0.13,0.1369,0.144,0.1506,0.1546,0.1646,0.1765,0.1905,0.2045,0.2141,0.216,0.2187,0.2181,0.2153,0.2294,0.2192,0.2194,0.22,0.2158,0.2128,0.2118,0.2121,0.2124,0.2126,0.2129,0,0.1192,0.123,0.1281,0.1357,0.1407,0.148,0.1561,0.1575,0.1685,0.179,0.1928,0.1754,0.1809,0.1864,0.1755,0.1799,0.1694,0.1779,0.1598,0.1626,0.165,0.1572,0.1381,0.1379,0.1377,0.1375,0,0,0.1183,0.1207,0.1229,0.13,0.1376,0.1433,0.1475,0.1497,0.1531,0.1519,0.152,0.167,0.1749,0.1485,0.1498,0.1435,0.1509,0.1385,0.1977,0.1786,0.1807,0.1882,0.1796,0,0,0,0,0]},{"header":{"parameterUnit":"m.s-1","parameterCategory":2,"la1":30.2991,"la2":30.254,"lo1":-89.0895,"lo2":-89.0444,"dy":0.0017,"dx":0.0017,"nx":28,"ny":28,"refTime":"2025-06-03T03:00:00:Z","depth":"2","parameterNumber":3,"parameterNumberName":"V-component_of_CURRENTS"},"data":[0,0,0,0,0,0,0,0,0,0,0,0,0,0,0,0,0,0,0,0,0,0,0,0,0,0,0,0,0,0,0,0,0,0,0,0,0,0,0,0,0,0,0,0,0,0,0,0,0,0,0,0,0,0,0,0,0,0,-0.0773,-0.0773,0,-0.0834,-0.0834,-0.0835,-0.0878,-0.0879,-0.0879,-0.0879,-0.0904,-0.0905,-0.0905,0,0,0,0,0,0,0,0,0,0,0,0,0,-0.0623,-0.0626,-0.0773,-0.0773,-0.0774,-0.0834,-0.0834,-0.0835,-0.0878,-0.0879,-0.0879,-0.088,-0.0904,-0.0905,-0.0905,0,0,0,0,0,0,0,0,0,0,0,0,0,-0.0687,-0.0627,-0.0773,-0.0803,-0.0806,-0.0833,-0.0834,-0.0835,-0.0878,-0.0879,-0.0879,-0.088,-0.0904,-0.0904,-0.0905,-0.0897,0,0,-0.0906,-0.0907,0,0,0,0,0,0,0,0,-0.0683,-0.0692,-0.0798,-0.0801,-0.0805,-0.0849,-0.0791,-0.0854,-0.0878,-0.0851,-0.0879,-0.088,-0.0882,-0.0884,-0.0895,-0.0899,-0.09,-0.0907,-0.0907,-0.0907,-0.0907,0,0,0,0,0,0,0,-0.0679,-0.0689,-0.0797,-0.0798,-0.0803,-0.0789,-0.08,-0.0803,-0.0862,-0.0853,-0.0857,-0.0863,-0.0884,-0.0895,-0.0896,-0.09,-0.0906,-0.0907,-0.0907,-0.0907,-0.0877,-0.0876,0,0,0,0,0,0,-0.0675,-0.0686,-0.0795,-0.0799,-0.0744,-0.0792,-0.0803,-0.0834,-0.0863,-0.0868,-0.0863,-0.0865,-0.0893,-0.0895,-0.0897,-0.0881,-0.0907,-0.0907,-0.0908,-0.0878,-0.0877,-0.0875,0,0,0,0,0,0,-0.0672,-0.0685,-0.0792,-0.0742,-0.0755,-0.0795,-0.0828,-0.0835,-0.0845,-0.087,-0.0875,-0.0865,-0.0894,-0.0896,-0.0894,-0.0882,-0.0908,-0.0908,-0.0879,-0.0878,-0.0876,-0.0853,0,0,0,0,0,0,-0.0668,-0.0684,-0.0698,-0.0743,-0.0757,-0.0802,-0.0828,-0.0836,-0.0848,-0.0852,-0.0874,-0.0877,-0.0895,-0.0893,-0.0895,-0.0883,-0.0909,-0.0881,-0.0879,-0.0877,-0.0856,-0.0851,-0.0847,0,0,0,0,0,-0.0663,-0.0682,-0.07,-0.0712,-0.0779,-0.0801,-0.0807,-0.0836,-0.0847,-0.0847,-0.0861,-0.0876,-0.0881,-0.0893,-0.0895,-0.0883,-0.0882,-0.0879,-0.0877,-0.0857,-0.0852,-0.0848,0,0,0,0,0,0,-0.0632,-0.069,-0.071,-0.0749,-0.0768,-0.0808,-0.0812,-0.0829,-0.0842,-0.0843,-0.0867,-0.0871,-0.0863,-0.0871,-0.0883,-0.0865,-0.0881,-0.0879,-0.0866,-0.0861,-0.0857,-0.0869,-0.0909,0,0,0,0,0,-0.063,-0.0659,-0.0703,-0.0731,-0.074,-0.0772,-0.0783,-0.0801,-0.0821,-0.0828,-0.084,-0.0848,-0.0854,-0.0856,-0.086,-0.0851,-0.0876,-0.0841,-0.0837,-0.0834,-0.0843,-0.0887,-0.0889,-0.0867,-0.0867,-0.0867,0,0,-0.0628,-0.0661,-0.0679,-0.0725,-0.0744,-0.0752,-0.078,-0.0793,-0.0798,-0.0826,-0.0825,-0.0833,-0.0847,-0.0842,-0.0838,-0.0847,-0.0845,-0.0831,-0.0828,-0.0839,-0.0885,-0.0888,-0.089,-0.0866,-0.0866,-0.0866,0,0,-0.0621,-0.0663,-0.0675,-0.0688,-0.0711,-0.0732,-0.0731,-0.0759,-0.077,-0.0768,-0.079,-0.0797,-0.0794,-0.0813,-0.0821,-0.0794,-0.0822,-0.0781,-0.0774,-0.0816,-0.082,-0.0823,-0.083,-0.0834,-0.078,-0.078,-0.078,0,-0.0615,-0.064,-0.0677,-0.068,-0.0685,-0.0719,-0.0716,-0.0733,-0.0753,-0.0755,-0.076,-0.0774,-0.0786,-0.0799,-0.0791,-0.0788,-0.0805,-0.0795,-0.0815,-0.0818,-0.0822,-0.0829,-0.0834,-0.0778,-0.0779,-0.0779,-0.0779,0,-0.0606,-0.0623,-0.0625,-0.0647,-0.0655,-0.0657,-0.0683,-0.0684,-0.0694,-0.0712,-0.0717,-0.0741,-0.0752,-0.0751,-0.0766,-0.0788,-0.0787,-0.0807,-0.0834,-0.0824,-0.083,-0.0836,-0.0776,-0.0777,-0.0777,-0.0778,0,0,-0.0601,-0.0618,-0.0617,-0.0608,-0.0634,-0.0635,-0.0642,-0.0654,-0.0649,-0.0673,-0.0671,-0.0699,-0.0717,-0.0727,-0.0747,-0.0787,-0.0819,-0.0805,-0.0808,-0.0825,-0.089,-0.0794,-0.0791,-0.0848,-0.085,-0.0851,-0.0875,0,-0.0579,-0.0569,-0.0588,-0.0569,-0.0561,-0.0587,-0.0585,-0.06,-0.0614,-0.0616,-0.0662,-0.0663,-0.0707,-0.0703,-0.0756,-0.0799,-0.0837,-0.0809,-0.0887,-0.0889,-0.0817,-0.0796,-0.0788,-0.0801,-0.088,-0.0881,-0.0882,0,-0.0555,-0.0549,-0.0529,-0.0516,-0.0514,-0.0511,-0.0505,-0.0509,-0.0536,-0.0542,-0.0579,-0.0608,-0.0661,-0.0697,-0.0801,-0.0781,-0.0836,-0.0879,-0.0881,-0.081,-0.0805,-0.0829,-0.0809,-0.0892,-0.0891,-0.089,-0.089,0,-0.0508,-0.0501,-0.0479,-0.0476,-0.0476,-0.0467,-0.0468,-0.0486,-0.0468,-0.05,-0.048,-0.0568,-0.0574,-0.069,-0.0766,-0.0792,-0.0867,-0.0915,-0.0884,-0.0877,-0.0894,-0.0885,-0.1,-0.1,-0.1,-0.1,-0.1,0,-0.0471,-0.0448,-0.0453,-0.0436,-0.0396,-0.0418,-0.0381,-0.0392,-0.0393,-0.035,-0.0439,-0.0411,-0.0575,-0.0627,-0.0743,-0.0802,-0.0851,-0.0876,-0.088,-0.0877,-0.0867,-0.0973,-0.097,-0.1001,-0.1001,-0.1,-0.1,0,-0.042,-0.0429,-0.0393,-0.0382,-0.0374,-0.0344,-0.0313,-0.0278,-0.0293,-0.024,-0.024,-0.0289,-0.0342,-0.0482,-0.0628,-0.0722,-0.0822,-0.0832,-0.0789,-0.0786,-0.0817,-0.0812,-0.0825,-0.0822,-0.082,-0.0818,-0.0816,0,-0.0389,-0.037,-0.0342,-0.031,-0.0302,-0.0263,-0.0225,-0.0228,-0.0179,-0.0144,-0.0097,-0.0128,-0.0093,-0.0255,-0.0458,-0.0623,-0.0696,-0.0714,-0.077,-0.0798,-0.0801,-0.08,-0.0799,-0.0786,-0.0784,-0.0782,-0.0781,0,-0.0322,-0.032,-0.0287,-0.0226,-0.0182,-0.0118,-0.0063,-0.0004,0.002,0.0094,0.019,0.0222,0.0071,-0.0071,-0.0288,-0.0426,-0.0694,-0.0681,-0.0748,-0.0803,-0.0755,-0.0759,-0.0761,-0.0767,-0.0768,-0.0769,-0.077,-0.077,-0.0264,-0.0225,-0.0184,-0.0119,-0.0063,0.004,0.012,0.0212,0.0341,0.0497,0.046,0.052,0.0244,0.0015,-0.021,-0.0489,-0.0521,-0.0647,-0.0656,-0.0665,-0.0628,-0.0576,-0.0546,-0.0546,-0.0546,-0.0546,-0.0546,0,-0.0178,-0.0139,-0.0074,0.0015,0.011,0.0108,0.0245,0.0367,0.0569,0.0691,0.0817,0.0605,0.0446,0.0131,-0.0257,-0.047,-0.055,-0.0539,-0.0623,-0.0635,-0.0647,-0.0613,-0.0525,-0.0525,-0.0525,-0.0525,0,0,-0.0128,-0.0041,-0.0006,0.0164,0.0225,0.0368,0.046,0.0655,0.077,0.0949,0.0966,0.0971,0.0521,0.0257,-0.0075,-0.0291,-0.0401,-0.0329,-0.033,-0.0402,-0.0409,-0.07,-0.0658,0,0,0,0,0]}],[{"header":{"parameterUnit":"m.s-1","parameterCategory":2,"la1":30.2991,"la2":30.254,"lo1":-89.0895,"lo2":-89.0444,"dy":0.0017,"dx":0.0017,"nx":28,"ny":28,"refTime":"2025-06-03T03:00:00:Z","depth":"4","parameterNumber":2,"parameterNumberName":"U-component_of_CURRENTS"},"data":[0,0,0,0,0,0,0,0,0,0,0,0,0,0,0,0,0,0,0,0,0,0,0,0,0,0,0,0,0,0,0,0,0,0,0,0,0,0,0,0,0,0,0,0,0,0,0,0,0,0,0,0,0,0,0,0,0,0,0.0436,0.0437,0,0.0506,0.0507,0.0508,0.0614,0.0615,0.0617,0.0618,0.0831,0.0835,0.084,0,0,0,0,0,0,0,0,0,0,0,0,0,0.0394,0.0394,0.0436,0.0437,0.0437,0.0505,0.0507,0.0508,0.0613,0.0615,0.0617,0.0619,0.083,0.0835,0.084,0,0,0,0,0,0,0,0,0,0,0,0,0,0.0435,0.0394,0.0436,0.0496,0.0502,0.0505,0.0507,0.0508,0.0613,0.0615,0.0618,0.062,0.0828,0.0834,0.0841,0.0832,0,0,0.086,0.0863,0,0,0,0,0,0,0,0,0.0433,0.0437,0.0487,0.0492,0.0498,0.0551,0.057,0.0622,0.0612,0.0574,0.0619,0.0621,0.0747,0.076,0.077,0.0842,0.0851,0.086,0.0864,0.0867,0.0869,0,0,0,0,0,0,0,0.043,0.0435,0.0467,0.0487,0.0494,0.0518,0.0527,0.058,0.0652,0.0578,0.0585,0.0587,0.0752,0.0764,0.0776,0.0854,0.086,0.0866,0.087,0.0872,0.104,0.1041,0,0,0,0,0,0,0.0412,0.0432,0.0465,0.0469,0.0467,0.0517,0.0527,0.0534,0.0648,0.0666,0.0584,0.0591,0.0752,0.0769,0.0785,0.0912,0.0867,0.0873,0.0876,0.104,0.104,0.1041,0,0,0,0,0,0,0.0411,0.0415,0.0462,0.0449,0.0457,0.0515,0.0522,0.0534,0.0608,0.0651,0.0673,0.0653,0.0754,0.0776,0.0896,0.0916,0.0876,0.0881,0.1039,0.104,0.1041,0.1083,0,0,0,0,0,0,0.041,0.0414,0.0429,0.0448,0.0457,0.0497,0.052,0.0534,0.06,0.0612,0.0715,0.0734,0.0758,0.0886,0.0902,0.0924,0.0886,0.1038,0.1039,0.104,0.1081,0.1085,0.1089,0,0,0,0,0,0.0408,0.0416,0.043,0.0434,0.0471,0.0498,0.0507,0.0557,0.0602,0.0635,0.0723,0.0734,0.0904,0.0894,0.0912,0.0936,0.1037,0.1039,0.104,0.1079,0.1084,0.1089,0,0,0,0,0,0,0.0411,0.0427,0.0443,0.0459,0.049,0.0516,0.0547,0.0588,0.0679,0.0723,0.0771,0.0795,0.089,0.0912,0.0899,0.0982,0.096,0.0966,0.0983,0.0989,0.0993,0.099,0.0891,0,0,0,0,0,0.0412,0.0433,0.0447,0.0471,0.0483,0.0528,0.0555,0.0602,0.0668,0.0713,0.0792,0.086,0.0894,0.095,0.0989,0.1064,0.1056,0.108,0.1084,0.1088,0.1094,0.1111,0.1117,0.1046,0.1046,0.1046,0,0,0.0419,0.0435,0.0447,0.0475,0.0504,0.0531,0.0554,0.0619,0.0682,0.0722,0.0861,0.089,0.0916,0.0986,0.1028,0.1024,0.1099,0.109,0.1093,0.1098,0.1113,0.112,0.1126,0.1047,0.1047,0.1047,0,0,0.0431,0.046,0.0471,0.0498,0.055,0.0579,0.0611,0.0682,0.0756,0.0863,0.0892,0.0949,0.1042,0.1054,0.1064,0.112,0.1113,0.1127,0.1168,0.1184,0.119,0.1195,0.1173,0.1176,0.114,0.114,0.114,0,0.0439,0.0459,0.0483,0.0501,0.0532,0.0605,0.0637,0.071,0.0831,0.0895,0.0922,0.1029,0.1059,0.1104,0.1114,0.1129,0.1131,0.1148,0.119,0.1195,0.12,0.1176,0.1179,0.1142,0.1142,0.1142,0.1142,0,0.0447,0.0478,0.0494,0.0539,0.0575,0.0629,0.0704,0.0813,0.0909,0.0961,0.1069,0.1105,0.116,0.116,0.1159,0.12,0.1185,0.1185,0.1178,0.121,0.1182,0.1184,0.1146,0.1145,0.1144,0.1144,0,0,0.0423,0.0484,0.0495,0.0522,0.0611,0.0638,0.0768,0.0871,0.0952,0.1071,0.1138,0.1199,0.1222,0.1233,0.1237,0.1252,0.1269,0.1244,0.1244,0.1223,0.1289,0.1236,0.1233,0.1291,0.1292,0.1293,0.1248,0,0.0429,0.0468,0.0504,0.0566,0.0592,0.07,0.0786,0.0904,0.1013,0.1104,0.1166,0.1225,0.1248,0.1269,0.1291,0.1276,0.1281,0.1279,0.1261,0.1259,0.121,0.1236,0.1297,0.125,0.125,0.1251,0.1251,0,0.0413,0.0451,0.05,0.0581,0.0599,0.066,0.0816,0.091,0.1054,0.1135,0.1227,0.1262,0.1321,0.131,0.1348,0.1356,0.1328,0.1309,0.1307,0.1248,0.1212,0.1216,0.1255,0.1254,0.1254,0.1254,0.1254,0,0.0373,0.0443,0.0491,0.0519,0.0618,0.0698,0.0786,0.0936,0.1029,0.117,0.1236,0.13,0.1348,0.1355,0.1362,0.1362,0.136,0.1346,0.1267,0.1261,0.1302,0.1297,0.1345,0.1345,0.1345,0.1346,0.1346,0,0.0356,0.0391,0.0486,0.0512,0.0586,0.0673,0.0785,0.0903,0.1037,0.1108,0.1252,0.1298,0.137,0.139,0.1363,0.1337,0.1378,0.1274,0.1256,0.1316,0.1314,0.1302,0.1297,0.1344,0.1344,0.1344,0.1345,0,0.0301,0.0363,0.0408,0.0522,0.0566,0.063,0.0795,0.0872,0.1036,0.1134,0.1188,0.1319,0.1365,0.1404,0.1382,0.1348,0.1306,0.1273,0.1321,0.1306,0.1182,0.1181,0.1173,0.1171,0.1169,0.1168,0.1167,0,0.0278,0.0296,0.0398,0.0439,0.0504,0.062,0.0699,0.0866,0.0937,0.1125,0.1138,0.1253,0.132,0.1272,0.1301,0.1268,0.1251,0.1223,0.1218,0.1187,0.117,0.1171,0.1171,0.1164,0.1164,0.1163,0.1163,0,0.0229,0.0266,0.0306,0.0388,0.0473,0.0551,0.0675,0.0715,0.0886,0.1025,0.1092,0.1147,0.1185,0.1197,0.1209,0.117,0.1245,0.1204,0.1207,0.1202,0.1175,0.1161,0.1163,0.1157,0.1158,0.1158,0.1159,0,0.0191,0.0202,0.0261,0.0333,0.0416,0.0474,0.0547,0.0639,0.073,0.093,0.0913,0.1049,0.1133,0.1141,0.1126,0.1129,0.1105,0.1064,0.1073,0.108,0.1079,0.1034,0.0959,0,0,0,0,0,0.0161,0.0174,0.0214,0.0285,0.0358,0.0415,0.0519,0.0591,0.0729,0.075,0.0846,0.0881,0.0947,0.0994,0.0977,0.1061,0.1088,0.1035,0.1039,0.1124,0.1131,0.1143,0,0,0,0,0,0,0.014,0.0169,0.0186,0.0233,0.0274,0.0353,0.0415,0.0504,0.0523,0.0664,0.0695,0.0822,0.0879,0.0945,0.0958,0.0974,0.0957,0.111,0.1108,0.112,0.1126,0.1132,0.1147,0,0,0,0,0]},{"header":{"parameterUnit":"m.s-1","parameterCategory":2,"la1":30.2991,"la2":30.254,"lo1":-89.0895,"lo2":-89.0444,"dy":0.0017,"dx":0.0017,"nx":28,"ny":28,"refTime":"2025-06-03T03:00:00:Z","depth":"4","parameterNumber":3,"parameterNumberName":"V-component_of_CURRENTS"},"data":[0,0,0,0,0,0,0,0,0,0,0,0,0,0,0,0,0,0,0,0,0,0,0,0,0,0,0,0,0,0,0,0,0,0,0,0,0,0,0,0,0,0,0,0,0,0,0,0,0,0,0,0,0,0,0,0,0,0,0.0349,0.0349,0,0.033,0.0329,0.0329,0.0321,0.0321,0.0322,0.0322,0.016,0.0155,0.0151,0,0,0,0,0,0,0,0,0,0,0,0,0,0.0321,0.0321,0.0349,0.0349,0.0349,0.033,0.0329,0.0329,0.0321,0.0321,0.0322,0.0322,0.0161,0.0156,0.015,0,0,0,0,0,0,0,0,0,0,0,0,0,0.0318,0.0322,0.0349,0.0345,0.0344,0.033,0.0329,0.0329,0.0321,0.0321,0.0322,0.0322,0.0163,0.0156,0.0149,0.0098,0,0,0.0128,0.0125,0,0,0,0,0,0,0,0,0.0318,0.0319,0.0345,0.0345,0.0345,0.0331,0.026,0.0245,0.0321,0.0327,0.0322,0.0323,0.0205,0.0195,0.0188,0.009,0.0083,0.0128,0.0124,0.0121,0.0119,0,0,0,0,0,0,0,0.0318,0.0319,0.0338,0.0345,0.0345,0.0324,0.0325,0.0257,0.0259,0.0326,0.0327,0.0329,0.0203,0.0195,0.0184,0.0081,0.0128,0.0122,0.0118,0.0115,-0.0131,-0.0134,0,0,0,0,0,0,0.0329,0.032,0.0339,0.0338,0.0335,0.0325,0.0325,0.0332,0.0263,0.0255,0.0328,0.0328,0.0207,0.0192,0.0178,0.0081,0.0121,0.0114,0.011,-0.0129,-0.0132,-0.0134,0,0,0,0,0,0,0.0329,0.0331,0.034,0.033,0.033,0.0326,0.0333,0.0332,0.0331,0.0266,0.0255,0.033,0.0206,0.0188,0.0106,0.0076,0.0111,0.0105,-0.0126,-0.013,-0.0133,-0.0093,0,0,0,0,0,0,0.0328,0.0331,0.0341,0.0331,0.0331,0.0338,0.0333,0.0331,0.0332,0.0332,0.0263,0.0249,0.0205,0.0116,0.0099,0.0067,0.0099,-0.0123,-0.0128,-0.0132,-0.0091,-0.0095,-0.0098,0,0,0,0,0,0.0327,0.0338,0.0341,0.0344,0.0345,0.0338,0.0336,0.0332,0.0332,0.0332,0.027,0.0251,0.0075,0.0109,0.0089,0.0055,-0.0121,-0.0126,-0.0132,-0.009,-0.0094,-0.0098,0,0,0,0,0,0,0.0328,0.0338,0.0342,0.0355,0.0352,0.0338,0.0342,0.0336,0.0292,0.0287,0.0224,0.0204,0.0117,0.0074,0.0113,-0.0034,-0.0029,-0.0038,0.001,0.0005,0.0002,0.0048,0.0094,0,0,0,0,0,0.0334,0.0352,0.0347,0.0362,0.0361,0.0352,0.035,0.0346,0.0309,0.0294,0.023,0.0154,0.0077,0.0037,-0.0039,-0.0114,-0.012,-0.0154,-0.0157,-0.0159,-0.0139,-0.0181,-0.0184,-0.0152,-0.0152,-0.0152,0,0,0.034,0.035,0.0359,0.0364,0.0363,0.0362,0.0352,0.0353,0.0344,0.0276,0.022,0.0139,0.0052,-0.0035,-0.0078,-0.007,-0.0174,-0.0166,-0.0166,-0.0145,-0.0186,-0.0189,-0.0191,-0.0156,-0.0155,-0.0154,0,0,0.0355,0.0368,0.0382,0.0382,0.0385,0.0376,0.0379,0.035,0.0332,0.0265,0.0208,0.0122,-0.0003,-0.0061,-0.0107,-0.0174,-0.0191,-0.022,-0.0195,-0.0236,-0.0237,-0.0238,-0.0239,-0.0241,-0.0218,-0.0218,-0.0218,0,0.0362,0.0383,0.0383,0.0392,0.0398,0.0385,0.0392,0.037,0.031,0.0281,0.0248,0.0063,-0.0008,-0.0097,-0.0128,-0.0176,-0.0193,-0.0164,-0.0233,-0.0235,-0.0237,-0.0238,-0.024,-0.0216,-0.0217,-0.0217,-0.0217,0,0.0376,0.0399,0.0408,0.042,0.0419,0.0427,0.0403,0.0379,0.0339,0.0295,0.0186,0.0077,-0.0027,-0.0079,-0.0126,-0.0193,-0.0198,-0.0229,-0.0205,-0.0236,-0.0237,-0.024,-0.0215,-0.0215,-0.0215,-0.0216,0,0,0.0377,0.0413,0.0418,0.0432,0.0439,0.0435,0.0426,0.0399,0.0379,0.0283,0.0233,0.0085,0.0019,-0.0037,-0.0119,-0.016,-0.0193,-0.0199,-0.0202,-0.0167,-0.0259,-0.0269,-0.0273,-0.024,-0.0241,-0.0242,-0.0248,0,0.0392,0.0425,0.0435,0.0457,0.0469,0.0464,0.0453,0.0422,0.0369,0.0306,0.0202,0.0107,0.0038,-0.0027,-0.008,-0.0179,-0.0202,-0.0186,-0.0263,-0.0264,-0.0243,-0.0278,-0.0244,-0.025,-0.0251,-0.0251,-0.0252,0,0.0394,0.0423,0.0457,0.0481,0.0483,0.0492,0.0478,0.0462,0.0394,0.0342,0.025,0.0158,0.0061,0.001,-0.0121,-0.0113,-0.0173,-0.0231,-0.0233,-0.0253,-0.0281,-0.0222,-0.0257,-0.0256,-0.0256,-0.0256,-0.0255,0,0.0387,0.043,0.0464,0.0474,0.0496,0.0507,0.0511,0.047,0.045,0.037,0.033,0.0201,0.0125,0.0029,-0.0112,-0.0119,-0.0236,-0.0258,-0.0306,-0.0306,-0.0305,-0.0304,-0.0315,-0.0315,-0.0315,-0.0315,-0.0315,0,0.0392,0.0415,0.047,0.0486,0.051,0.0519,0.0524,0.0504,0.0471,0.0435,0.0346,0.0279,0.0121,0.0019,-0.0085,-0.021,-0.0215,-0.0293,-0.0316,-0.0291,-0.0288,-0.0306,-0.0305,-0.0315,-0.0315,-0.0315,-0.0315,0,0.0373,0.0415,0.0447,0.0493,0.0512,0.0523,0.0556,0.0551,0.0525,0.0483,0.0459,0.0335,0.0199,0.006,-0.0103,-0.0176,-0.029,-0.0324,-0.026,-0.0281,-0.0325,-0.0322,-0.0358,-0.0358,-0.0359,-0.0359,-0.0359,0,0.0366,0.0389,0.045,0.0477,0.0507,0.0542,0.0568,0.0572,0.0562,0.0502,0.0471,0.035,0.025,0.0038,-0.0111,-0.0273,-0.0305,-0.0333,-0.0349,-0.0314,-0.0333,-0.0329,-0.0326,-0.036,-0.036,-0.036,-0.0361,0,0.0349,0.0377,0.0405,0.0466,0.051,0.0551,0.0585,0.0579,0.0567,0.056,0.0466,0.0348,0.0203,0.0028,-0.01,-0.0225,-0.0305,-0.0338,-0.0338,-0.0353,-0.0318,-0.0335,-0.0331,-0.0362,-0.0362,-0.0362,-0.0362,0,0.033,0.0345,0.0393,0.0438,0.0495,0.0532,0.0557,0.0557,0.0554,0.0499,0.0464,0.0322,0.0239,0.0052,-0.0076,-0.0194,-0.0219,-0.0241,-0.0246,-0.0246,-0.0228,-0.0168,-0.018,0,0,0,0,0,0.0308,0.0326,0.0365,0.0413,0.0469,0.0509,0.0551,0.057,0.0568,0.0509,0.049,0.0356,0.0163,0.007,-0.0048,-0.0094,-0.0246,-0.0236,-0.0276,-0.0372,-0.037,-0.0372,0,0,0,0,0,0,0.0295,0.0327,0.0348,0.0386,0.0418,0.0482,0.0511,0.0519,0.0483,0.0467,0.036,0.0337,0.014,0.0227,-0.005,-0.0086,-0.0124,-0.0319,-0.0321,-0.0373,-0.0371,-0.037,-0.0371,0,0,0,0,0]}]]